Location: Spring Creek
(38.2870°N, 100.2160°W)
Time: 17:30:10
(UTC+00:00)

Meteor 2-15 - Pass Details

Date: 01 October 2021
Orbit: 937 x 954 km, 82.5° (Epoch: 19 October)

Event Time Altitude Azimuth Distance (km) Brightness Sun altitude
Exits shadow 09:14:05 19° 1° (N) 2,080 6.4 -38.9°
Drops below altitude 10° 09:15:43 10° 4° (N) 2,677 7.1 -38.7°
Sets 09:18:14 0° 6° (N) 3,628 7.9 -38.2°
